�������l�o���
Date,Time,MP-1(��Sv/h),MP-2(��Sv/h),MP-3(��Sv/h),MP-4(��Sv/h),MP-5(��Sv/h),MP-6(��Sv/h),MP-7(��Sv/h),MP-8(��Sv/h),����,����(m/s),���J
2023/04/01,00:00,0.563,0.820,0.497,1.021,0.721,0.323,0.577,0.548,��쐼,5.7,��
2023/04/01,00:10,0.563,0.821,0.496,1.019,0.720,0.324,0.578,0.546,�쐼,6.4,��
2023/04/01,00:20,0.562,0.822,0.496,1.020,0.718,0.324,0.578,0.546,�쐼,6.1,��
2023/04/01,00:30,0.562,0.823,0.495,1.020,0.718,0.324,0.578,0.548,���쐼,4.9,��
2023/04/01,00:40,0.562,0.821,0.493,1.022,0.719,0.324,0.579,0.547,���쐼,2.5,��
2023/04/01,00:50,0.563,0.821,0.495,1.020,0.720,0.323,0.577,0.546,�k�k��,1.1,��
2023/04/01,01:00,0.561,0.824,0.495,1.022,0.720,0.325,0.579,0.547,�k�k��,1.2,��
2023/04/01,01:10,0.563,0.820,0.496,1.021,0.721,0.324,0.579,0.548,��,0.8,��
2023/04/01,01:20,0.563,0.821,0.495,1.019,0.718,0.323,0.579,0.547,�k�k��,0.8,��
2023/04/01,01:30,0.562,0.821,0.495,1.021,0.722,0.324,0.578,0.547,�k��,3.5,��
2023/04/01,01:40,0.563,0.822,0.495,1.020,0.718,0.323,0.579,0.548,�k��,5.6,��
2023/04/01,01:50,0.562,0.819,0.494,1.022,0.718,0.325,0.578,0.546,�k��,3.9,��
2023/04/01,02:00,0.563,0.822,0.494,1.020,0.720,0.322,0.578,0.548,�k,4.2,��
2023/04/01,02:10,0.563,0.820,0.494,1.020,0.721,0.324,0.578,0.546,�k�k��,4.8,��
2023/04/01,02:20,0.562,0.819,0.493,1.021,0.719,0.323,0.578,0.547,�k,5.5,��
2023/04/01,02:30,0.562,0.820,0.495,1.022,0.719,0.323,0.578,0.547,�k�k��,5.7,��
2023/04/01,02:40,0.562,0.821,0.495,1.021,0.719,0.323,0.578,0.548,�k�k��,5.7,��
2023/04/01,02:50,0.562,0.821,0.494,1.021,0.718,0.323,0.578,0.547,�k�k��,4.8,��
2023/04/01,03:00,0.560,0.819,0.493,1.020,0.719,0.323,0.578,0.547,�k�k��,4.6,��
2023/04/01,03:10,0.561,0.822,0.494,1.023,0.720,0.324,0.577,0.546,�k�k��,3.9,��
2023/04/01,03:20,0.562,0.822,0.495,1.020,0.719,0.323,0.579,0.546,�k�k��,3.7,��
2023/04/01,03:30,0.561,0.820,0.495,1.022,0.720,0.322,0.577,0.546,�k�k��,4.7,��
2023/04/01,03:40,0.561,0.818,0.494,1.021,0.720,0.323,0.578,0.547,�k�k��,4.6,��
2023/04/01,03:50,0.561,0.822,0.495,1.021,0.720,0.322,0.578,0.546,�k�k��,3.7,��
2023/04/01,04:00,0.561,0.818,0.494,1.019,0.720,0.324,0.578,0.548,�k��,2.6,��
2023/04/01,04:10,0.562,0.820,0.494,1.021,0.718,0.324,0.578,0.546,�k�k��,2.0,��
2023/04/01,04:20,0.562,0.821,0.495,1.024,0.719,0.322,0.578,0.546,�k�k��,2.3,��
2023/04/01,04:30,0.562,0.820,0.493,1.022,0.719,0.323,0.578,0.546,�k�k��,3.0,��
2023/04/01,04:40,0.560,0.821,0.494,1.020,0.719,0.322,0.576,0.547,�k�k��,4.6,��
2023/04/01,04:50,0.560,0.821,0.495,1.021,0.718,0.324,0.577,0.547,�k�k��,6.3,��
2023/04/01,05:00,0.558,0.822,0.494,1.021,0.720,0.323,0.576,0.546,�k�k��,5.8,��
2023/04/01,05:10,0.561,0.820,0.493,1.020,0.720,0.322,0.577,0.546,�k�k��,5.5,��
2023/04/01,05:20,0.561,0.819,0.494,1.022,0.720,0.324,0.576,0.546,�k�k��,4.2,��
2023/04/01,05:30,0.561,0.821,0.493,1.021,0.718,0.323,0.577,0.547,�k�k��,2.6,��
2023/04/01,05:40,0.560,0.821,0.495,1.021,0.720,0.323,0.578,0.546,�k�k��,3.2,��
2023/04/01,05:50,0.562,0.820,0.494,1.022,0.720,0.323,0.576,0.545,�k�k��,2.9,��
2023/04/01,06:00,0.561,0.820,0.495,1.022,0.719,0.323,0.576,0.548,�k�k��,3.0,��
2023/04/01,06:10,0.560,0.820,0.494,1.020,0.721,0.323,0.577,0.546,�k�k��,3.9,��
2023/04/01,06:20,0.560,0.819,0.493,1.021,0.718,0.322,0.578,0.546,�k�k��,4.3,��
2023/04/01,06:30,0.561,0.820,0.495,1.019,0.720,0.323,0.578,0.546,�k�k��,4.6,��
2023/04/01,06:40,0.560,0.823,0.495,1.022,0.721,0.322,0.576,0.546,�k�k��,4.5,��
2023/04/01,06:50,0.561,0.823,0.493,1.021,0.720,0.324,0.577,0.547,�k�k��,4.9,��
2023/04/01,07:00,0.561,0.821,0.494,1.025,0.719,0.324,0.578,0.547,�k,4.3,��
2023/04/01,07:10,0.560,0.822,0.495,1.023,0.721,0.322,0.579,0.547,�k,4.0,��
2023/04/01,07:20,0.560,0.821,0.495,1.022,0.719,0.324,0.576,0.546,�k,3.1,��
2023/04/01,07:30,0.562,0.822,0.495,1.020,0.718,0.323,0.577,0.546,�k�k��,2.9,��
2023/04/01,07:40,0.561,0.821,0.493,1.021,0.720,0.323,0.577,0.548,�k,2.9,��
2023/04/01,07:50,0.563,0.822,0.494,1.021,0.719,0.321,0.579,0.548,�k�k��,3.2,��
2023/04/01,08:00,0.561,0.819,0.495,1.024,0.719,0.321,0.579,0.546,�k,2.2,��
2023/04/01,08:10,0.563,0.820,0.494,1.022,0.720,0.321,0.577,0.546,�k�k��,1.8,��
2023/04/01,08:20,0.562,0.821,0.494,1.023,0.720,0.321,0.577,0.548,�k�k��,1.9,��
2023/04/01,08:30,0.564,0.818,0.494,1.022,0.721,0.321,0.578,0.547,�k�k��,1.9,��
2023/04/01,08:40,0.562,0.819,0.494,1.024,0.721,0.321,0.577,0.548,�k�k��,2.3,��
2023/04/01,08:50,0.562,0.819,0.494,1.023,0.721,0.320,0.576,0.548,�k,2.3,��
2023/04/01,09:00,0.561,0.822,0.495,1.021,0.719,0.321,0.577,0.546,�k�k��,3.2,��
2023/04/01,09:10,0.562,0.820,0.495,1.025,0.721,0.321,0.577,0.547,�k�k��,3.4,��
2023/04/01,09:20,0.560,0.819,0.495,1.020,0.720,0.321,0.577,0.544,�k�k��,3.3,��
2023/04/01,09:30,0.561,0.822,0.497,1.023,0.721,0.321,0.576,0.546,�k��,3.1,��
2023/04/01,09:40,0.559,0.820,0.495,1.024,0.722,0.322,0.575,0.547,�k��,2.9,��
2023/04/01,09:50,0.561,0.819,0.497,1.024,0.721,0.321,0.577,0.546,��,3.9,��
2023/04/01,10:00,0.559,0.820,0.495,1.021,0.719,0.323,0.576,0.544,���k��,3.5,��
2023/04/01,10:10,0.561,0.821,0.493,1.024,0.719,0.322,0.577,0.545,�k��,4.3,��
2023/04/01,10:20,0.560,0.819,0.495,1.022,0.720,0.322,0.577,0.546,���k��,4.8,��
2023/04/01,10:30,0.560,0.821,0.494,1.024,0.720,0.322,0.577,0.546,���k��,4.3,��
2023/04/01,10:40,0.561,0.820,0.495,1.021,0.720,0.321,0.576,0.546,���k��,4.7,��
2023/04/01,10:50,0.560,0.822,0.493,1.023,0.720,0.322,0.576,0.546,�k��,5.6,��
2023/04/01,11:00,0.561,0.824,0.493,1.023,0.720,0.321,0.577,0.545,�k��,5.3,��
2023/04/01,11:10,0.561,0.822,0.493,1.023,0.720,0.323,0.577,0.547,�k��,6.0,��
2023/04/01,11:20,0.561,0.821,0.494,1.023,0.721,0.321,0.575,0.544,���k��,4.7,��
2023/04/01,11:30,0.560,0.822,0.495,1.024,0.720,0.322,0.577,0.545,�k��,4.5,��
2023/04/01,11:40,0.562,0.821,0.495,1.025,0.723,0.322,0.578,0.544,���k��,4.5,��
2023/04/01,11:50,0.562,0.822,0.493,1.023,0.723,0.321,0.577,0.545,�k��,3.4,��
2023/04/01,12:00,0.562,0.821,0.494,1.025,0.721,0.323,0.577,0.546,���k��,4.0,��
2023/04/01,12:10,0.562,0.824,0.494,1.025,0.723,0.321,0.577,0.547,�k��,3.5,��
2023/04/01,12:20,0.562,0.823,0.495,1.024,0.722,0.322,0.578,0.546,���k��,3.3,��
2023/04/01,12:30,0.562,0.825,0.496,1.024,0.721,0.322,0.577,0.544,�k��,3.5,��
2023/04/01,12:40,0.561,0.824,0.496,1.024,0.722,0.322,0.577,0.546,���k��,2.8,��
2023/04/01,12:50,0.562,0.823,0.495,1.025,0.721,0.322,0.577,0.546,���k��,3.4,��
2023/04/01,13:00,0.562,0.824,0.495,1.025,0.722,0.323,0.577,0.546,��,3.2,��
2023/04/01,13:10,0.563,0.824,0.495,1.024,0.722,0.324,0.578,0.547,���k��,3.3,��
2023/04/01,13:20,0.564,0.823,0.494,1.027,0.724,0.323,0.578,0.544,�k��,3.2,��
2023/04/01,13:30,0.563,0.823,0.496,1.025,0.723,0.322,0.580,0.545,�k��,4.0,��
2023/04/01,13:40,0.561,0.822,0.495,1.024,0.723,0.322,0.579,0.545,�k�k��,3.5,��
2023/04/01,13:50,0.561,0.824,0.493,1.025,0.725,0.322,0.578,0.545,�k��,3.6,��
2023/04/01,14:00,0.562,0.825,0.495,1.025,0.725,0.322,0.580,0.547,�k��,3.0,��
2023/04/01,14:10,0.562,0.824,0.495,1.026,0.723,0.322,0.581,0.546,�k��,3.9,��
2023/04/01,14:20,0.562,0.822,0.493,1.026,0.723,0.321,0.580,0.547,�k��,3.2,��
2023/04/01,14:30,0.562,0.822,0.495,1.026,0.724,0.322,0.580,0.547,���k��,2.8,��
2023/04/01,14:40,0.564,0.824,0.494,1.027,0.724,0.322,0.580,0.547,���k��,2.3,��
2023/04/01,14:50,0.561,0.824,0.494,1.026,0.725,0.322,0.580,0.546,��,2.3,��
2023/04/01,15:00,0.562,0.825,0.496,1.025,0.724,0.321,0.579,0.546,���쓌,2.0,��
2023/04/01,15:10,0.562,0.825,0.494,1.025,0.725,0.322,0.581,0.545,���쓌,2.2,��
2023/04/01,15:20,0.562,0.823,0.495,1.026,0.726,0.322,0.581,0.546,���쓌,2.0,��
2023/04/01,15:30,0.561,0.823,0.495,1.026,0.722,0.322,0.580,0.547,��쓌,2.3,��
2023/04/01,15:40,0.563,0.825,0.495,1.025,0.724,0.323,0.580,0.547,�쓌,2.3,��
2023/04/01,15:50,0.562,0.825,0.495,1.026,0.724,0.323,0.581,0.546,��쓌,3.5,��
2023/04/01,16:00,0.564,0.825,0.495,1.026,0.726,0.323,0.579,0.545,��쓌,2.2,��
2023/04/01,16:10,0.561,0.826,0.496,1.027,0.723,0.323,0.580,0.546,���쓌,1.5,��
2023/04/01,16:20,0.561,0.825,0.496,1.022,0.724,0.324,0.580,0.546,��,3.1,��
2023/04/01,16:30,0.561,0.825,0.495,1.024,0.726,0.325,0.578,0.546,��쓌,3.0,��
2023/04/01,16:40,0.562,0.825,0.497,1.025,0.725,0.324,0.580,0.547,��쓌,2.6,��
2023/04/01,16:50,0.562,0.826,0.494,1.023,0.725,0.324,0.579,0.546,��쓌,3.0,��
2023/04/01,17:00,0.563,0.826,0.496,1.026,0.724,0.324,0.579,0.546,��쓌,3.5,��
2023/04/01,17:10,0.560,0.828,0.495,1.024,0.722,0.324,0.579,0.548,��,2.6,��
2023/04/01,17:20,0.563,0.828,0.496,1.026,0.724,0.324,0.579,0.548,��,2.3,��
2023/04/01,17:30,0.563,0.826,0.496,1.027,0.722,0.325,0.580,0.548,��,2.6,��
2023/04/01,17:40,0.563,0.828,0.494,1.023,0.726,0.324,0.578,0.550,��,2.0,��
2023/04/01,17:50,0.565,0.826,0.494,1.026,0.725,0.324,0.581,0.547,��쐼,2.2,��
2023/04/01,18:00,0.564,0.826,0.495,1.025,0.725,0.324,0.580,0.548,��쐼,2.6,��
2023/04/01,18:10,0.562,0.826,0.497,1.028,0.725,0.324,0.579,0.548,��쐼,2.0,��
2023/04/01,18:20,0.564,0.828,0.497,1.026,0.729,0.324,0.580,0.548,�쐼,2.0,��
2023/04/01,18:30,0.563,0.826,0.495,1.026,0.726,0.325,0.580,0.546,��쐼,1.7,��
2023/04/01,18:40,0.563,0.827,0.496,1.025,0.724,0.325,0.580,0.548,�쐼,1.1,��
2023/04/01,18:50,0.563,0.827,0.495,1.028,0.726,0.323,0.580,0.548,���쐼,0.6,��
2023/04/01,19:00,0.564,0.828,0.495,1.027,0.726,0.324,0.580,0.548,�쐼,0.8,��
2023/04/01,19:10,0.563,0.828,0.495,1.026,0.728,0.324,0.580,0.547,��,0.6,��
2023/04/01,19:20,0.563,0.826,0.497,1.027,0.725,0.324,0.580,0.546,���쐼,0.9,��
2023/04/01,19:30,0.563,0.827,0.496,1.027,0.726,0.325,0.580,0.548,�쐼,0.9,��
2023/04/01,19:40,0.564,0.824,0.496,1.027,0.726,0.325,0.579,0.548,���쐼,1.2,��
2023/04/01,19:50,0.563,0.825,0.498,1.028,0.726,0.322,0.579,0.548,���k��,1.7,��
2023/04/01,20:00,0.564,0.825,0.495,1.027,0.726,0.323,0.578,0.547,��,1.2,��
2023/04/01,20:10,0.562,0.826,0.496,1.024,0.726,0.322,0.579,0.549,�k��,2.6,��
2023/04/01,20:20,0.561,0.827,0.497,1.026,0.725,0.322,0.580,0.547,�k��,3.4,��
2023/04/01,20:30,0.563,0.826,0.496,1.027,0.726,0.324,0.580,0.548,�k�k��,3.1,��
2023/04/01,20:40,0.561,0.827,0.497,1.024,0.726,0.325,0.580,0.546,�k�k��,3.5,��
2023/04/01,20:50,0.564,0.827,0.496,1.027,0.726,0.324,0.579,0.547,�k�k��,2.8,��
2023/04/01,21:00,0.564,0.825,0.497,1.028,0.727,0.323,0.579,0.547,�k�k��,2.5,��
2023/04/01,21:10,0.563,0.826,0.495,1.026,0.727,0.323,0.578,0.546,�k�k��,2.9,��
2023/04/01,21:20,0.562,0.825,0.497,1.025,0.726,0.322,0.578,0.548,�k�k��,3.7,��
2023/04/01,21:30,0.563,0.826,0.496,1.028,0.726,0.324,0.578,0.548,�k�k��,4.0,��
2023/04/01,21:40,0.562,0.825,0.496,1.028,0.726,0.324,0.579,0.548,�k�k��,4.9,��
2023/04/01,21:50,0.562,0.826,0.496,1.028,0.725,0.324,0.578,0.547,�k�k��,6.0,��
2023/04/01,22:00,0.562,0.825,0.496,1.027,0.726,0.323,0.579,0.548,�k�k��,6.5,��
2023/04/01,22:10,0.563,0.827,0.495,1.028,0.725,0.322,0.580,0.548,�k�k��,7.6,��
2023/04/01,22:20,0.563,0.825,0.496,1.028,0.726,0.323,0.579,0.547,�k�k��,7.3,��
2023/04/01,22:30,0.563,0.825,0.496,1.030,0.726,0.325,0.580,0.546,�k�k��,7.6,��
2023/04/01,22:40,0.561,0.825,0.496,1.029,0.726,0.323,0.581,0.547,�k�k��,7.7,��
2023/04/01,22:50,0.563,0.825,0.497,1.027,0.726,0.323,0.580,0.548,�k�k��,7.7,��
2023/04/01,23:00,0.562,0.824,0.494,1.027,0.724,0.323,0.580,0.547,�k��,7.7,��
2023/04/01,23:10,0.561,0.825,0.496,1.028,0.725,0.324,0.578,0.548,�k��,7.4,��
2023/04/01,23:20,0.562,0.825,0.496,1.029,0.725,0.323,0.579,0.549,�k��,8.1,��
2023/04/01,23:30,0.562,0.824,0.496,1.029,0.726,0.323,0.578,0.548,�k��,7.5,��
2023/04/01,23:40,0.563,0.824,0.495,1.026,0.724,0.324,0.578,0.548,�k��,7.5,��
2023/04/01,23:50,0.562,0.825,0.496,1.029,0.726,0.324,0.578,0.547,�k��,7.2,��
